Year,Month,Day,Hour,Minute,Value (Times are PST for temperature in C)
2022,01,03,00,00,5.20
2022,01,03,00,01,5.20
2022,01,03,00,02,5.20
2022,01,03,00,03,5.20
2022,01,03,00,04,5.20
2022,01,03,00,05,5.20
2022,01,03,00,06,5.20
2022,01,03,00,07,5.30
2022,01,03,00,08,5.30
2022,01,03,00,09,5.30
2022,01,03,00,10,5.30
2022,01,03,00,11,5.30
2022,01,03,00,12,5.30
2022,01,03,00,13,5.30
2022,01,03,00,14,5.30
2022,01,03,00,15,5.30
2022,01,03,00,16,5.30
2022,01,03,00,17,5.30
2022,01,03,00,18,5.30
2022,01,03,00,19,5.30
2022,01,03,00,20,5.20
2022,01,03,00,21,5.20
2022,01,03,00,22,5.20
2022,01,03,00,23,5.20
2022,01,03,00,24,5.20
2022,01,03,00,25,5.20
2022,01,03,00,26,5.20
2022,01,03,00,27,5.20
2022,01,03,00,28,5.20
2022,01,03,00,29,5.20
2022,01,03,00,30,5.20
2022,01,03,00,31,5.20
2022,01,03,00,32,5.20
2022,01,03,00,33,5.20
2022,01,03,00,34,5.20
2022,01,03,00,35,5.10
2022,01,03,00,36,5.10
2022,01,03,00,37,5.10
2022,01,03,00,38,5.10
2022,01,03,00,39,5.00
2022,01,03,00,40,5.00
2022,01,03,00,41,4.90
2022,01,03,00,42,4.90
2022,01,03,00,43,4.90
2022,01,03,00,44,4.80
2022,01,03,00,45,4.80
2022,01,03,00,46,4.80
2022,01,03,00,47,4.80
2022,01,03,00,48,4.80
2022,01,03,00,49,4.70
2022,01,03,00,50,4.70
2022,01,03,00,51,4.80
2022,01,03,00,52,4.80
2022,01,03,00,53,4.80
2022,01,03,00,54,4.80
2022,01,03,00,55,4.80
2022,01,03,00,56,4.80
2022,01,03,00,57,4.80
2022,01,03,00,58,4.80
2022,01,03,00,59,4.80
2022,01,03,01,00,4.80
2022,01,03,01,01,4.80
2022,01,03,01,02,4.80
2022,01,03,01,03,4.70
2022,01,03,01,04,4.70
2022,01,03,01,05,4.70
2022,01,03,01,06,4.60
2022,01,03,01,07,4.60
2022,01,03,01,08,4.60
2022,01,03,01,09,4.50
2022,01,03,01,10,4.50
2022,01,03,01,11,4.50
2022,01,03,01,12,4.50
2022,01,03,01,13,4.40
2022,01,03,01,14,4.40
2022,01,03,01,15,4.40
2022,01,03,01,16,4.40
2022,01,03,01,17,4.30
2022,01,03,01,18,4.30
2022,01,03,01,19,4.30
2022,01,03,01,20,4.30
2022,01,03,01,21,4.30
2022,01,03,01,22,4.20
2022,01,03,01,23,4.20
2022,01,03,01,24,4.20
2022,01,03,01,25,4.20
2022,01,03,01,26,4.20
2022,01,03,01,27,4.20
2022,01,03,01,28,4.20
2022,01,03,01,29,4.20
2022,01,03,01,30,4.20
2022,01,03,01,31,4.10
2022,01,03,01,32,4.10
2022,01,03,01,33,4.10
2022,01,03,01,34,4.10
2022,01,03,01,35,4.20
2022,01,03,01,36,4.10
2022,01,03,01,37,4.10
2022,01,03,01,38,4.10
2022,01,03,01,39,4.20
2022,01,03,01,40,4.20
2022,01,03,01,41,4.20
2022,01,03,01,42,4.20
2022,01,03,01,43,4.20
2022,01,03,01,44,4.20
2022,01,03,01,45,4.20
2022,01,03,01,46,4.20
2022,01,03,01,47,4.20
2022,01,03,01,48,4.20
2022,01,03,01,49,4.30
2022,01,03,01,50,4.20
2022,01,03,01,51,4.20
2022,01,03,01,52,4.20
2022,01,03,01,53,4.30
2022,01,03,01,54,4.30
2022,01,03,01,55,4.30
2022,01,03,01,56,4.30
2022,01,03,01,57,4.30
2022,01,03,01,58,4.30
2022,01,03,01,59,4.20
2022,01,03,02,00,4.20
2022,01,03,02,01,4.20
2022,01,03,02,02,4.20
2022,01,03,02,03,4.20
2022,01,03,02,04,4.20
2022,01,03,02,05,4.20
2022,01,03,02,06,4.20
2022,01,03,02,07,4.20
2022,01,03,02,08,4.20
2022,01,03,02,09,4.20
2022,01,03,02,10,4.20
2022,01,03,02,11,4.20
2022,01,03,02,12,4.20
2022,01,03,02,13,4.20
2022,01,03,02,14,4.20
2022,01,03,02,15,4.20
2022,01,03,02,16,4.20
2022,01,03,02,17,4.20
2022,01,03,02,18,4.20
2022,01,03,02,19,4.20
2022,01,03,02,20,4.10
2022,01,03,02,21,4.10
2022,01,03,02,22,4.10
2022,01,03,02,23,4.10
2022,01,03,02,24,4.10
2022,01,03,02,25,4.10
2022,01,03,02,26,4.20
2022,01,03,02,27,4.20
2022,01,03,02,28,4.20
2022,01,03,02,29,4.20
2022,01,03,02,30,4.20
2022,01,03,02,31,4.20
2022,01,03,02,32,4.20
2022,01,03,02,33,4.20
2022,01,03,02,34,4.20
2022,01,03,02,35,4.20
2022,01,03,02,36,4.20
2022,01,03,02,37,4.20
2022,01,03,02,38,4.20
2022,01,03,02,39,4.20
2022,01,03,02,40,4.20
2022,01,03,02,41,4.20
2022,01,03,02,42,4.20
2022,01,03,02,43,4.20
2022,01,03,02,44,4.30
2022,01,03,02,45,4.30
2022,01,03,02,46,4.30
2022,01,03,02,47,4.30
2022,01,03,02,48,4.20
2022,01,03,02,49,4.20
2022,01,03,02,50,4.30
2022,01,03,02,51,4.30
2022,01,03,02,52,4.30
2022,01,03,02,53,4.20
2022,01,03,02,54,4.20
2022,01,03,02,55,4.20
2022,01,03,02,56,4.30
2022,01,03,02,57,4.20
2022,01,03,02,58,4.20
2022,01,03,02,59,4.20
2022,01,03,03,00,4.30
2022,01,03,03,01,4.30
2022,01,03,03,02,4.30
2022,01,03,03,03,4.30
2022,01,03,03,04,4.30
2022,01,03,03,05,4.30
2022,01,03,03,06,4.30
2022,01,03,03,07,4.30
2022,01,03,03,08,4.30
2022,01,03,03,09,4.30
2022,01,03,03,10,4.30
2022,01,03,03,11,4.30
2022,01,03,03,12,4.30
2022,01,03,03,13,4.30
2022,01,03,03,14,4.30
2022,01,03,03,15,4.30
2022,01,03,03,16,4.30
2022,01,03,03,17,4.40
2022,01,03,03,18,4.40
2022,01,03,03,19,4.40
2022,01,03,03,20,4.40
2022,01,03,03,21,4.40
2022,01,03,03,22,4.40
2022,01,03,03,23,4.40
2022,01,03,03,24,4.40
2022,01,03,03,25,4.40
2022,01,03,03,26,4.40
2022,01,03,03,27,4.40
2022,01,03,03,28,4.40
2022,01,03,03,29,4.40
2022,01,03,03,30,4.40
2022,01,03,03,31,4.50
2022,01,03,03,32,4.50
2022,01,03,03,33,4.50
2022,01,03,03,34,4.50
2022,01,03,03,35,4.60
2022,01,03,03,36,4.60
2022,01,03,03,37,4.50
2022,01,03,03,38,4.50
2022,01,03,03,39,4.50
2022,01,03,03,40,4.50
2022,01,03,03,41,4.50
2022,01,03,03,42,4.50
2022,01,03,03,43,4.50
2022,01,03,03,44,4.50
2022,01,03,03,45,4.50
2022,01,03,03,46,4.50
2022,01,03,03,47,4.60
2022,01,03,03,48,4.60
2022,01,03,03,49,4.60
2022,01,03,03,50,4.60
2022,01,03,03,51,4.60
2022,01,03,03,52,4.70
2022,01,03,03,53,4.70
2022,01,03,03,54,4.70
2022,01,03,03,55,4.70
2022,01,03,03,56,4.70
2022,01,03,03,57,4.80
2022,01,03,03,58,4.80
2022,01,03,03,59,4.80
2022,01,03,04,00,4.90
2022,01,03,04,01,4.90
2022,01,03,04,02,4.90
2022,01,03,04,03,4.90
2022,01,03,04,04,4.90
2022,01,03,04,05,4.90
2022,01,03,04,06,5.00
2022,01,03,04,07,5.00
2022,01,03,04,08,5.00
2022,01,03,04,09,5.00
2022,01,03,04,10,4.90
2022,01,03,04,11,4.90
2022,01,03,04,12,4.90
2022,01,03,04,13,4.90
2022,01,03,04,14,4.80
2022,01,03,04,15,4.80
2022,01,03,04,16,4.80
2022,01,03,04,17,4.80
2022,01,03,04,18,4.80
2022,01,03,04,19,4.80
2022,01,03,04,20,4.80
2022,01,03,04,21,4.80
2022,01,03,04,22,4.80
2022,01,03,04,23,4.80
2022,01,03,16,18,2.40
2022,01,03,16,19,2.40
2022,01,03,16,20,2.30
2022,01,03,16,21,2.30
2022,01,03,16,22,2.30
2022,01,03,16,23,2.30
2022,01,03,16,24,2.30
2022,01,03,16,25,2.30
2022,01,03,16,26,2.30
2022,01,03,16,27,2.20
2022,01,03,16,28,2.20
2022,01,03,16,29,2.20
2022,01,03,16,30,2.30
2022,01,03,16,31,2.40
2022,01,03,16,32,2.40
2022,01,03,16,33,2.40
2022,01,03,16,34,2.50
2022,01,03,16,35,2.40
2022,01,03,16,36,2.40
2022,01,03,16,37,2.50
2022,01,03,16,38,2.60
2022,01,03,16,39,2.60
2022,01,03,16,40,2.70
2022,01,03,16,41,2.80
2022,01,03,16,42,2.90
2022,01,03,16,43,2.90
2022,01,03,16,44,2.90
2022,01,03,16,45,2.90
2022,01,03,16,46,2.90
2022,01,03,16,47,2.90
2022,01,03,16,48,2.90
2022,01,03,16,49,2.90
2022,01,03,16,50,2.90
2022,01,03,16,51,2.80
2022,01,03,16,52,2.80
2022,01,03,16,53,2.70
2022,01,03,16,54,2.70
2022,01,03,16,55,2.60
2022,01,03,16,56,2.60
2022,01,03,16,57,2.50
2022,01,03,16,58,2.50
2022,01,03,16,59,2.40
2022,01,03,17,00,2.40
2022,01,03,17,01,2.30
2022,01,03,17,02,2.30
2022,01,03,17,03,2.20
2022,01,03,17,04,2.20
2022,01,03,17,05,2.20
2022,01,03,17,06,2.10
2022,01,03,17,07,2.00
2022,01,03,17,08,2.00
2022,01,03,17,09,1.90
2022,01,03,17,10,1.90
2022,01,03,17,11,1.90
2022,01,03,17,12,1.90
2022,01,03,17,13,1.90
2022,01,03,17,14,1.90
2022,01,03,17,15,1.90
2022,01,03,17,16,1.90
2022,01,03,17,17,1.90
2022,01,03,17,18,1.90
2022,01,03,17,19,1.90
2022,01,03,17,20,1.90
2022,01,03,17,21,1.80
2022,01,03,17,22,1.80
2022,01,03,17,23,1.80
2022,01,03,17,24,1.80
2022,01,03,17,25,1.80
2022,01,03,17,26,1.80
2022,01,03,17,27,1.90
2022,01,03,17,28,1.90
2022,01,03,17,29,1.90
2022,01,03,17,30,1.90
2022,01,03,17,31,1.90
2022,01,03,17,32,1.90
2022,01,03,17,33,1.90
2022,01,03,17,34,2.00
2022,01,03,17,35,2.00
2022,01,03,17,36,2.00
2022,01,03,17,37,2.00
2022,01,03,17,38,2.00
2022,01,03,17,39,2.00
2022,01,03,17,40,2.00
2022,01,03,17,41,1.90
2022,01,03,17,42,1.90
2022,01,03,17,43,1.90
2022,01,03,17,44,1.90
2022,01,03,17,45,1.90
2022,01,03,17,46,1.90
2022,01,03,17,47,1.90
2022,01,03,17,48,1.90
2022,01,03,17,49,1.90
2022,01,03,17,50,1.80
2022,01,03,17,51,1.80
2022,01,03,17,52,1.80
2022,01,03,17,53,1.80
2022,01,03,17,54,1.80
2022,01,03,17,55,1.80
2022,01,03,17,56,1.80
2022,01,03,17,57,1.80
2022,01,03,17,58,1.80
2022,01,03,17,59,1.80
2022,01,03,18,00,1.70
2022,01,03,18,01,1.70
2022,01,03,18,02,1.70
2022,01,03,18,03,1.70
2022,01,03,18,04,1.70
2022,01,03,18,05,1.70
2022,01,03,18,06,1.70
2022,01,03,18,07,1.70
2022,01,03,18,08,1.70
2022,01,03,18,09,1.60
2022,01,03,18,10,1.60
2022,01,03,18,11,1.50
2022,01,03,18,12,1.50
2022,01,03,18,13,1.40
2022,01,03,18,14,1.40
2022,01,03,18,15,1.40
2022,01,03,18,16,1.40
2022,01,03,18,17,1.40
2022,01,03,18,18,1.40
2022,01,03,18,19,1.40
2022,01,03,18,20,1.40
2022,01,03,18,21,1.40
2022,01,03,18,22,1.40
2022,01,03,18,23,1.40
2022,01,03,18,24,1.30
2022,01,03,18,25,1.30
2022,01,03,18,26,1.30
2022,01,03,18,27,1.30
2022,01,03,18,28,1.30
2022,01,03,18,29,1.30
2022,01,03,18,30,1.30
2022,01,03,18,31,1.30
2022,01,03,18,32,1.30
2022,01,03,18,33,1.30
2022,01,03,18,34,1.30
2022,01,03,18,35,1.30
2022,01,03,18,36,1.30
2022,01,03,18,37,1.30
2022,01,03,18,38,1.30
2022,01,03,18,39,1.30
2022,01,03,18,40,1.30
2022,01,03,18,41,1.30
2022,01,03,18,42,1.20
2022,01,03,18,43,1.20
2022,01,03,18,44,1.20
2022,01,03,18,45,1.20
2022,01,03,18,46,1.20
2022,01,03,18,47,1.20
2022,01,03,18,48,1.10
2022,01,03,18,49,1.10
2022,01,03,18,50,1.10
2022,01,03,18,51,1.20
2022,01,03,18,52,1.20
2022,01,03,18,53,1.20
2022,01,03,18,54,1.20
2022,01,03,18,55,1.20
2022,01,03,18,56,1.10
2022,01,03,18,57,1.10
2022,01,03,18,58,1.20
2022,01,03,18,59,1.20
2022,01,03,19,00,1.20
2022,01,03,19,01,1.20
2022,01,03,19,02,1.10
2022,01,03,19,03,1.10
2022,01,03,19,04,1.10
2022,01,03,19,05,1.10
2022,01,03,19,06,1.10
2022,01,03,19,07,1.10
2022,01,03,19,08,1.10
2022,01,03,19,09,1.10
2022,01,03,19,10,1.10
2022,01,03,19,11,1.20
2022,01,03,19,12,1.30
2022,01,03,19,13,1.30
2022,01,03,19,14,1.30
2022,01,03,19,15,1.30
2022,01,03,19,16,1.30
2022,01,03,19,17,1.30
2022,01,03,19,18,1.20
2022,01,03,19,19,1.20
2022,01,03,19,20,1.20
2022,01,03,19,21,1.20
2022,01,03,19,22,1.20
2022,01,03,19,23,1.20
2022,01,03,19,24,1.20
2022,01,03,19,25,1.20
2022,01,03,19,26,1.20
2022,01,03,19,27,1.20
2022,01,03,19,28,1.20
2022,01,03,19,29,1.20
2022,01,03,19,30,1.30
2022,01,03,19,31,1.30
2022,01,03,19,32,1.30
2022,01,03,19,33,1.30
2022,01,03,19,34,1.30
2022,01,03,19,35,1.30
2022,01,03,19,36,1.30
2022,01,03,19,37,1.30
2022,01,03,19,38,1.30
2022,01,03,19,39,1.30
2022,01,03,19,40,1.30
2022,01,03,19,41,1.30
2022,01,03,19,42,1.30
2022,01,03,19,43,1.40
2022,01,03,19,44,1.40
2022,01,03,19,45,1.50
2022,01,03,19,46,1.50
2022,01,03,19,47,1.60
2022,01,03,19,48,1.60
2022,01,03,19,49,1.60
2022,01,03,19,50,1.70
2022,01,03,19,51,1.70
2022,01,03,19,52,1.70
2022,01,03,19,53,1.60
2022,01,03,19,54,1.60
2022,01,03,19,55,1.70
2022,01,03,19,56,1.60
2022,01,03,19,57,1.60
2022,01,03,19,58,1.60
2022,01,03,19,59,1.60
2022,01,03,20,00,1.60
2022,01,03,20,01,1.60
2022,01,03,20,02,1.60
2022,01,03,20,03,1.60
2022,01,03,20,04,1.70
2022,01,03,20,05,1.70
2022,01,03,20,06,1.70
2022,01,03,20,07,1.70
2022,01,03,20,08,1.60
2022,01,03,20,09,1.60
2022,01,03,20,10,1.70
2022,01,03,20,11,1.70
2022,01,03,20,12,1.60
2022,01,03,20,13,1.60
2022,01,03,20,14,1.60
2022,01,03,20,15,1.60
2022,01,03,20,16,1.60
2022,01,03,20,17,1.60
2022,01,03,20,18,1.60
2022,01,03,20,19,1.70
2022,01,03,20,20,1.80
2022,01,03,20,21,1.80
2022,01,03,20,22,1.80
2022,01,03,20,23,1.80
2022,01,03,20,24,1.70
2022,01,03,20,25,1.70
2022,01,03,20,26,1.70
2022,01,03,20,27,1.70
2022,01,03,20,28,1.70
2022,01,03,20,29,1.70
2022,01,03,20,30,1.80
2022,01,03,20,31,2.00
2022,01,03,20,32,2.00
2022,01,03,20,33,2.10
2022,01,03,20,34,2.10
2022,01,03,20,35,2.20
2022,01,03,20,36,2.20
2022,01,03,20,37,2.20
2022,01,03,20,38,2.20
2022,01,03,20,39,2.30
2022,01,03,20,40,2.30
2022,01,03,20,41,2.40
2022,01,03,20,42,2.50
2022,01,03,20,43,2.60
2022,01,03,20,44,2.60
2022,01,03,20,45,2.70
2022,01,03,20,46,2.80
2022,01,03,20,47,2.80
2022,01,03,20,48,2.80
2022,01,03,20,49,2.90
2022,01,03,20,50,2.90
2022,01,03,20,51,3.00
2022,01,03,20,52,3.10
2022,01,03,20,53,3.20
2022,01,03,20,54,3.20
2022,01,03,20,55,3.30
2022,01,03,20,56,3.30
2022,01,03,20,57,3.30
2022,01,03,20,58,3.30
2022,01,03,20,59,3.30
2022,01,03,21,00,3.30
2022,01,03,21,01,3.20
2022,01,03,21,02,3.20
2022,01,03,21,03,3.20
2022,01,03,21,04,3.20
2022,01,03,21,05,3.20
2022,01,03,21,06,3.20
2022,01,03,21,07,3.20
2022,01,03,21,08,3.20
2022,01,03,21,09,3.20
2022,01,03,21,10,3.20
2022,01,03,21,11,3.20
2022,01,03,21,12,3.10
2022,01,03,21,13,3.10
2022,01,03,21,14,3.10
2022,01,03,21,15,3.00
2022,01,03,21,16,3.00
2022,01,03,21,17,3.00
2022,01,03,21,18,2.90
2022,01,03,21,19,2.90
2022,01,03,21,20,2.90
2022,01,03,21,21,2.90
2022,01,03,21,22,2.80
2022,01,03,21,23,2.80
2022,01,03,21,24,2.80
2022,01,03,21,25,2.80
2022,01,03,21,26,2.80
2022,01,03,21,27,2.90
2022,01,03,21,28,2.90
2022,01,03,21,29,2.90
2022,01,03,21,30,2.80
2022,01,03,21,31,2.80
2022,01,03,21,32,2.80
2022,01,03,21,33,2.80
2022,01,03,21,34,2.70
2022,01,03,21,35,2.70
2022,01,03,21,36,2.70
2022,01,03,21,37,2.70
2022,01,03,21,38,2.60
2022,01,03,21,39,2.60
2022,01,03,21,40,2.60
2022,01,03,21,41,2.70
2022,01,03,21,42,2.70
2022,01,03,21,43,2.70
2022,01,03,21,44,2.70
2022,01,03,21,45,2.70
2022,01,03,21,46,2.70
2022,01,03,21,47,2.60
2022,01,03,21,48,2.50
2022,01,03,21,49,2.50
2022,01,03,21,50,2.40
2022,01,03,21,51,2.40
2022,01,03,21,52,2.30
2022,01,03,21,53,2.30
2022,01,03,21,54,2.30
2022,01,03,21,55,2.30
2022,01,03,21,56,2.30
2022,01,03,21,57,2.40
2022,01,03,21,58,2.40
2022,01,03,21,59,2.40
2022,01,03,22,00,2.50
2022,01,03,22,01,2.50
2022,01,03,22,02,2.50
2022,01,03,22,03,2.60
2022,01,03,22,04,2.60
2022,01,03,22,05,2.70
2022,01,03,22,06,2.70
2022,01,03,22,07,2.70
2022,01,03,22,08,2.70
2022,01,03,22,09,2.80
2022,01,03,22,10,2.80
2022,01,03,22,11,2.90
2022,01,03,22,12,2.90
2022,01,03,22,13,2.90
2022,01,03,22,14,3.00
2022,01,03,22,15,3.00
2022,01,03,22,16,3.00
2022,01,03,22,17,3.10
2022,01,03,22,18,3.10
2022,01,03,22,19,3.10
2022,01,03,22,20,3.10
2022,01,03,22,21,3.10
2022,01,03,22,22,3.10
2022,01,03,22,23,3.10
2022,01,03,22,24,3.20
2022,01,03,22,25,3.20
2022,01,03,22,26,3.20
2022,01,03,22,27,3.20
2022,01,03,22,28,3.20
2022,01,03,22,29,3.20
2022,01,03,22,30,3.20
2022,01,03,22,31,3.20
2022,01,03,22,32,3.20
2022,01,03,22,33,3.10
2022,01,03,22,34,3.10
2022,01,03,22,35,3.10
2022,01,03,22,36,3.10
2022,01,03,22,37,3.10
2022,01,03,22,38,3.20
2022,01,03,22,39,3.20
2022,01,03,22,40,3.20
2022,01,03,22,41,3.20
2022,01,03,22,42,3.20
2022,01,03,22,43,3.20
2022,01,03,22,44,3.20
2022,01,03,22,45,3.20
2022,01,03,22,46,3.20
2022,01,03,22,47,3.10
2022,01,03,22,48,3.10
2022,01,03,22,49,3.10
2022,01,03,22,50,3.00
2022,01,03,22,51,3.00
2022,01,03,22,52,3.00
2022,01,03,22,53,3.00
2022,01,03,22,54,3.00
2022,01,03,22,55,3.10
2022,01,03,22,56,3.10
2022,01,03,22,57,3.10
2022,01,03,22,58,3.00
2022,01,03,22,59,3.00
2022,01,03,23,00,3.00
2022,01,03,23,01,3.00
2022,01,03,23,02,3.00
2022,01,03,23,03,3.00
2022,01,03,23,04,2.90
2022,01,03,23,05,2.90
2022,01,03,23,06,2.90
2022,01,03,23,07,3.00
2022,01,03,23,08,3.00
2022,01,03,23,09,3.10
2022,01,03,23,10,3.10
2022,01,03,23,11,3.10
2022,01,03,23,12,3.10
2022,01,03,23,13,3.20
2022,01,03,23,14,3.20
2022,01,03,23,15,3.30
2022,01,03,23,16,3.30
2022,01,03,23,17,3.30
2022,01,03,23,18,3.30
2022,01,03,23,19,3.30
2022,01,03,23,20,3.30
2022,01,03,23,21,3.30
2022,01,03,23,22,3.30
2022,01,03,23,23,3.30
2022,01,03,23,24,3.30
2022,01,03,23,25,3.30
2022,01,03,23,26,3.30
2022,01,03,23,27,3.30
2022,01,03,23,28,3.40
2022,01,03,23,29,3.40
2022,01,03,23,30,3.40
2022,01,03,23,31,3.40
2022,01,03,23,32,3.50
2022,01,03,23,33,3.50
2022,01,03,23,34,3.50
2022,01,03,23,35,3.40
2022,01,03,23,36,3.40
2022,01,03,23,37,3.40
2022,01,03,23,38,3.50
2022,01,03,23,39,3.50
2022,01,03,23,40,3.50
2022,01,03,23,41,3.60
2022,01,03,23,42,3.60
2022,01,03,23,43,3.60
2022,01,03,23,44,3.60
2022,01,03,23,45,3.60
2022,01,03,23,46,3.50
2022,01,03,23,47,3.50
2022,01,03,23,48,3.40
2022,01,03,23,49,3.40
2022,01,03,23,50,3.40
2022,01,03,23,51,3.40
2022,01,03,23,52,3.40
2022,01,03,23,53,3.40
2022,01,03,23,54,3.40
2022,01,03,23,55,3.40
2022,01,03,23,56,3.40
2022,01,03,23,57,3.40
2022,01,03,23,58,3.40
2022,01,03,23,59,3.40
